Location: Milo
(50.5667°N, 112.8833°W)
Time: 03:32:42
(UTC+00:00)

ISS - Pass Details

Date: 01 December 2021
Orbit: 413 x 422 km, 51.6° (Epoch: 22 January)

Event Time Altitude Azimuth Distance (km) Brightness Sun altitude
Rises 02:06:34 0° 285° (WNW) 2,385 1.2 -23.9°
Reaches altitude 10° 02:08:41 10° 283° (WNW) 1,516 0.0 -24.2°
Enters shadow 02:10:55 38° 275° (W) 668 -2.3 -24.6°
